Terminal Aerodrome Forecast
Issued by NWS Mobile, AL

Home | Current Version | Previous Version | Text Only | Print | Product List | Glossary On
Versions: 1 2 3 4 5 6 7 8 9 10 11 12 13 14 15 16 17 18 19 20 21 22 23 24 25 26 27 28 29 30 31 32
000
FTUS44 KMOB 251700 RRA
TAFPNS
TAF
KPNS 251747Z 2518/2618 VRB04KT P6SM SKC
     FM260000 05004KT P6SM SKC
     FM260900 11004KT P6SM SCT250
     FM261200 12003KT P6SM BKN100=

USA.gov is the U.S. government's official web portal to all federal, state and local government web resources and services.